Regional Weather Roundup
Issued by NWS

Home | Current Version | Previous Version | Graphics & Text | Print | Product List | Glossary On
Versions: 1 2 3 4 5 6 7 8 9 10 11 12 13 14 15 16 17 18 19 20 21 22 23 24 25 26 27 28 29 30 31 32 33 34 35 36 37 38 39 40 41 42 43 44 45 46 47 48 49 50
000
ASUS43 KLSX 220059
RWRMO

WEATHER SUMMARY FOR MISSOURI
NATIONAL WEATHER SERVICE SPRINGFIELD MO
700 PM CST SUN DEC 21 2014

NOTE: "FAIR" INDICATES FEW OR NO CLOUDS BELOW 12,000 FEET WITH NO
       SIGNIFICANT WEATHER AND/OR OBSTRUCTIONS TO VISIBILITY.
       CURRENT SKY AND/OR WEATHER CONDITIONS ARE NOT AVAILABLE FOR
       CHILLICOTHE AND FARMINGTON.

MOZ001>031-035>038-043-044-053-054-220200-
...NORTHERN AND WESTERN MISSOURI...

CITY           SKY/WX    TMP DP  RH WIND       PRES   REMARKS
KANSAS CTY INT CLOUDY    44  41  89 S15       29.79F
KANSAS C DTWN  CLOUDY    46  40  79 SE9       29.81F
LEE`S SUMMIT   CLOUDY    43  40  89 SE9       29.82F
ST JOSEPH      LGT RAIN  43  41  93 S13       29.79F FOG
CHILLICOTHE      N/A     43  41  93 SE9       29.86F
KIRKSVILLE     LGT RAIN  41  40  96 SE13      29.89S FOG

$$
MOZ066>068-077>081-088>096-101>105-220200-
...SOUTHWEST MISSOURI...

CITY           SKY/WX    TMP DP  RH WIND       PRES   REMARKS
SPRINGFIELD    CLOUDY    41  35  79 SE13      29.87F
JOPLIN         CLOUDY    45  38  76 SE9       29.84F

$$
MOZ032>034-039>042-045>050-055>058-069>072-220200-
...CENTRAL MISSOURI...

CITY           SKY/WX    TMP DP  RH WIND       PRES   REMARKS
COLUMBIA       CLOUDY    41  36  82 SE14      29.92F
JEFFERSON CITY CLOUDY    42  35  76 SE9       29.95F
ROLLA          CLOUDY    39  32  76 SE7       29.93F
SEDALIA        CLOUDY    44  37  76 SE12      29.88F
WARRENSBURG    CLOUDY    41  37  87 SE12      29.85F
OSAGE BEACH    CLOUDY    43  34  70 SE8       29.92F

$$
MOZ051-052-059>065-220200-
...EAST CENTRAL MISSOURI...

CITY           SKY/WX    TMP DP  RH WIND       PRES   REMARKS
ST LOUIS INTL  CLOUDY    43  31  62 SE14      30.01F
SPIRIT OF STL  CLOUDY    42  31  64 VRB3      29.99F
ST CHARLES     CLOUDY    41  33  73 SE14      30.00F

$$
MOZ072>076-082>087-097>100-106>115-220200-
...SOUTH CENTRAL AND SOUTHEAST MISSOURI...

CITY           SKY/WX    TMP DP  RH WIND       PRES   REMARKS
CAPE GIRARDEAU PTCLDY    38  32  79 CALM      30.04F
FARMINGTON     CLOUDY    39  32  75 E6        30.01F
POPLAR BLUFF   CLOUDY    42  35  76 NE7       30.01F
WEST PLAINS    CLOUDY    40  32  73 SE9       29.95F

$$


USA.gov is the U.S. government's official web portal to all federal, state and local government web resources and services.